Powrót do katalogu

COSMOS 397 DEB

AktywnyLEO
NORAD 5011·DEBRIS·🇷🇺 Russia

Wystrzelony Feb 25, 1971 z Baikonur Cosmodrome

Loading…

Następne Przeloty (najbliższe 24 godziny)

TLE

ŚwieżeSource: Space-Track

Epoka: Sep 14, 2026, 02:06 UTC

1 05011U 71015E   26257.08782524  .00007370  00000-0  12083-2 0  9992
2 05011  65.6670 279.5712 0390745 326.3482  31.3333 14.31287797733590

Śledź COSMOS 397 DEB w czasie rzeczywistym z AllMySat

Download on the App Store